SCP
0 0 0 0 0 0 0 0 0 0 0 0 0 0 0 0 0 0 0 0 0 0 0 0 0 0 0 0 0 0 0 0 0 0 0 0 0 0 0 0 0 0 0 0
0 0 0 0 0 0 0 0 0 0 0 0 0 0 0 0 0 0 0 0 0 0 0 0 0 0 0 0 0 0 0 0 0 0 0 0 0 0 0 0 0 0 0 0
0 0 0 0 0 0 0 0 0 0 0 0 0 0 0 0 0 0 0 0 0 0 0 0 0 0 0 0 0 0 0 0 0 0 0 0 0 0 0 0 0 0 0 0
0 0 0 0 0 0 0 0 0 0 0 0 0 0 0 0 0 0 0 0 0 0 0 0 0 0 0 0 0 0 0 0 0 0 0 0 0 0 0 0 0 0 0 0
0 0 0 0 0 0 0 0 0 0 0 0 0 0 0 0 0 0 0 0 0 0 0 0 0 0 0 0 0 0 0 0 0 0 0 0 0 0 0 0 0 0 0 0
0 0 0 0 0 0 0 0 0 0 0 0 0 0 0 0 0 0 0 0 0 0 0 0 0 0 0 0 0 0 0 0 0 0 0 0 0 0 0 0 0 0 0 0
0 0 0 0 0 0 0 0 0 0 0 0 0 0 0 0 0 0 0 0 0 0 0 0 0 0 0 0 0 0 0 0 0 0 0 0 0 0 0 0 0 0 0 0
0 0 0 0 0 0 0 0 0 0 0 0 0 0 0 0 0 0 0 0 0 0 0 0 0 0 0 0 0 0 0 0 0 0 0 0 0 0 0 0 0 0 0 0
0 0 0 0 0 0 0 0 0 0 0 0 0 0 0 0 0 0 0 0 0 0 0 0 0 0 0 0 0 0 0 0 0 0 0 0 0 0 0 0 0 0 0 0
0 0 0 0 0 0 0 0 0 0 0 0 0 0 0 0 0 0 0 0 0 0 0 0 0 0 0 0 0 0 0 0 0 0 0 0 0 0 0 0 0 0 0 0
0 0 0 0 0 0 0 0 0 0 0 0 0 0 0 0 0 0 0 0 0 0 0 0 0 0 0 0 0 0 0 0 0 0 0 0 0 0 0 0 0 0 0 0
0 0 0 0 0 0 0 0 0 0 0 0 0 0 0 0 0 0 0 0 0 0 0 0 0 0 0 0 0 0 0 0 0 0 0 0 0 0 0 0 0 0 0 0
0 0 0 0 0 0 0 0 0 0 0 0 0 0 0 0 0 0 0 0 0 0 0 0 0 0 0 0 0 0 0 0 0 0 0 0 0 0 0 0 0 0 0 0
0 0 0 0 0 0 0 0 0 0 0 0 0 0 0 0 0 0 0 0 0 0 0 0 0 0 0 0 0 0 0 0 0 0 0 0 0 0 0 0 0 0 0 0
0 0 0 0 0 0 0 0 0 0 0 0 0 0 0 0 0 0 0 0 0 0 0 0 0 0 0 0 0 0 0 0 0 0 0 0 0 0 0 0 0 0 0 0
0 0 0 0 0 0 0 0 0 0 0 0 0 0 0 0 0 0 0 0 0 0 0 0 0 0 0 0 0 0 0 0 0 0 0 0 0 0 0 0 0 0 0 0
0 0 0 0 0 0 0 0 0 0 0 0 0 0 0 0 0 0 0 0 0 0 0 0 0 0 0 0 0 0 0 0 0 0 0 0 0 0 0 0 0 0 0 0
0 0 0 0 0 0 0 0 0 0 0 0 0 0 0 0 0 0 0 0 0 0 0 0 0 0 0 0 0 0 0 0 0 0 0 0 0 0 0 0 0 0 0 0
0 0 0 0 0 0 0 0 0 0 0 0 0 0 0 0 0 0 0 0 0 0 0 0 0 0 0 0 0 0 0 0 0 0 0 0 0 0 0 0 0 0 0 0
0 0 0 0 0 0 0 0 0 0 0 0 0 0 0 0 0 0 0 0 0 0 0 0 0 0 0 0 0 0 0 0 0 0 0 0 0 0 0 0 0 0 0 0
0 0 0 0 0 0 0 0 0 0 0 0 0 0 0 0 0 0 0 0 0 0 0 0 0 0 0 0 0 0 0 0 0 0 0 0 0 0 0 0 0 0 0 0
0 0 0 0 0 0 0 0 0 0 0 0 0 0 0 0 0 0 0 0 0 0 0 0 0 0 0 0 0 0 0 0 0 0 0 0 0 0 0 0 0 0 0 0
0 0 0 0 0 0 0 0 0 0 0 0 0 0 0 0 0 0 0 0 0 0 0 0 0 0 0 0 0 0 0 0 0 0 0 0 0 0 0 0 0 0 0 0
0 0 0 0 0 0 0 0 0 0 0 0 0 0 0 0 0 0 0 0 0 0 0 0 0 0 0 0 0 0 0 0 0 0 0 0 0 0 0 0 0 0 0 0
0 0 0 0 0 0 0 0 0 0 0 0 0 0 0 0 0 0 0 0 0 0 0 0 0 0 0 0 0 0 0 0 0 0 0 0 0 0 0 0 0 0 0 0
0 0 0 0 0 0 0 0 0 0 0 0 0 0 0 0 0 0 0 0 0 0 0 0 0 0 0 0 0 0 0 0 0 0 0 0 0 0 0 0 0 0 0 0
0 0 0 0 0 0 0 0 0 0 0 0 0 0 0 0 0 0 0 0 0 0 0 0 0 0 0 0 0 0 0 0 0 0 0 0 0 0 0 0 0 0 0 0
Wind_Speed
9 9 9 10 11 10 12 12 12 11 10 6 4 4 3 3 3 4 4 5 4 4 3 4 4 4 5 5 4 4 3 3 3 3 3 3 2 2 2 3 3 3 4 4
9 9 10 12 12 12 12 12 12 12 10 4 4 3 3 4 5 5 5 5 4 4 4 4 4 5 5 4 4 4 4 3 2 3 3 3 3 2 2 2 2 3 4 3
9 8 10 10 8 9 9 9 9 9 6 3 3 4 4 5 5 5 5 5 5 4 4 4 4 4 4 4 4 4 3 3 3 3 3 3 3 2 2 2 2 2 3 3
7 7 10 2 1 5 6 5 5 6 4 3 4 4 4 4 4 5 5 4 4 4 4 4 4 4 4 4 4 4 4 4 3 3 3 3 3 2 2 2 2 2 2 3
7 9 8 3 2 4 6 5 2 5 4 3 2 3 4 2 3 4 4 3 4 4 4 4 3 4 4 4 4 4 4 4 4 4 4 3 3 3 2 2 2 2 2 3
8 9 7 2 4 4 6 5 3 3 3 2 2 5 1 1 2 2 2 3 3 4 4 4 3 3 4 5 5 5 4 4 3 4 4 4 3 3 2 3 3 3 2 2
9 8 4 5 4 2 5 3 5 4 3 3 4 4 2 1 2 2 3 3 3 3 3 3 3 4 5 5 5 4 4 3 3 3 3 4 3 3 3 3 3 3 3 3
6 8 2 6 3 3 5 6 5 4 3 3 2 2 0 0 1 2 3 3 3 3 3 2 3 4 5 5 4 4 4 4 3 3 3 3 4 4 4 4 4 4 4 4
3 2 4 3 3 4 4 5 5 4 2 2 2 2 1 1 1 2 3 3 3 3 3 3 3 4 5 5 5 5 5 4 4 4 3 4 4 5 5 5 4 4 4 4
3 2 2 2 3 4 5 5 5 3 2 3 3 2 2 1 2 2 3 3 3 4 4 3 4 5 6 5 5 5 5 5 5 4 4 4 4 4 5 4 4 4 4 4
4 3 3 2 4 6 5 4 3 2 2 2 2 3 2 2 2 2 2 3 4 4 4 4 4 5 5 5 5 6 5 5 5 5 4 4 4 4 5 4 3 4 4 4
3 3 5 5 6 6 5 4 3 2 2 2 2 3 3 2 2 2 3 3 3 4 4 4 4 5 5 5 6 6 5 5 5 4 4 4 5 4 3 3 3 4 4 5
5 6 6 6 5 5 5 4 2 2 2 2 2 2 3 2 2 3 3 4 4 4 4 3 4 4 4 5 5 6 6 5 5 5 5 5 5 5 4 4 5 6 6 5
4 4 5 4 5 5 5 3 2 2 2 1 2 1 2 2 2 3 3 3 3 3 3 3 3 4 4 4 5 5 6 5 5 5 5 5 4 4 4 4 4 4 6 8
5 5 5 5 5 4 3 2 2 1 1 1 1 1 2 2 3 3 3 3 3 3 3 2 3 3 3 3 4 5 5 4 4 4 4 4 4 4 4 4 4 3 3 5
6 5 5 5 5 4 2 2 2 2 2 2 2 2 2 3 3 3 3 3 3 3 2 2 2 3 2 3 4 4 4 4 4 4 4 4 4 4 4 4 4 4 3 2
6 6 6 6 5 4 4 3 3 3 3 3 3 2 2 3 3 2 2 2 2 2 2 2 2 2 2 3 3 3 4 4 5 5 4 3 3 4 4 4 4 3 3 2
7 7 7 7 6 5 4 4 4 4 3 3 2 2 2 3 3 3 3 3 3 2 2 2 2 2 3 2 3 3 3 3 4 4 3 3 3 3 4 4 4 4 3 3
7 7 6 5 5 4 4 3 4 3 3 3 2 2 3 3 3 3 3 3 3 3 2 1 2 3 2 2 3 3 3 3 3 3 3 3 3 3 3 4 3 3 3 3
7 7 6 5 4 4 3 3 3 3 3 3 3 3 3 2 2 2 2 3 2 1 1 1 2 2 2 1 4 3 2 3 3 3 4 3 3 3 3 3 3 3 3 2
7 6 6 5 4 4 3 3 3 3 3 3 3 3 2 2 2 2 2 2 0 1 1 1 2 2 2 1 5 3 2 2 2 3 3 3 2 2 3 3 2 2 2 2
6 6 5 5 5 4 4 3 3 3 3 3 3 2 2 2 2 2 2 2 1 1 2 2 1 1 2 3 3 2 2 2 2 2 2 2 3 3 3 3 3 2 2 2
6 5 5 5 4 4 4 4 4 3 3 3 2 2 2 2 2 2 1 0 1 1 2 1 1 0 3 4 3 2 2 2 2 2 2 3 3 3 3 3 3 3 2 2
5 5 5 5 5 4 4 4 4 4 4 3 2 2 2 2 2 2 1 1 1 2 2 1 1 2 5 4 3 3 2 2 2 2 2 2 2 2 2 3 3 2 2 2
5 5 5 5 4 4 3 3 3 3 3 2 2 2 2 2 2 1 1 1 0 2 2 2 3 4 5 3 3 3 2 2 3 3 2 2 2 2 3 3 3 3 2 2
5 4 4 4 4 4 3 3 3 2 2 2 2 2 2 2 2 2 2 2 2 3 3 1 2 3 3 2 2 2 2 2 2 3 3 3 3 3 2 3 3 3 3 3
4 4 3 4 3 4 3 3 3 2 2 2 2 2 3 3 2 2 3 2 2 2 2 2 1 1 1 1 1 2 2 2 2 2 2 2 2 2 2 3 3 3 3 3
Wind_Direction
268 278 277 272 268 256 250 260 269 277 282 290 280 266 240 214 206 199 190 183 184 191 185 185 180 186 188 178 179 182 196 196 197 209 214 219 225 225 218 216 222 226 229 224
260 259 263 264 266 263 255 254 258 267 273 299 290 266 235 220 217 210 204 193 190 191 191 186 181 187 185 183 181 183 191 194 196 206 209 212 215 211 207 208 228 228 226 221
263 263 267 256 260 261 256 251 257 267 288 305 275 251 232 223 222 219 211 205 200 193 195 192 192 191 194 188 180 182 189 195 198 204 206 208 209 203 202 206 213 224 221 214
266 262 256 284 346 286 268 253 262 277 293 282 271 259 231 226 225 224 220 212 205 198 193 198 196 199 201 194 185 187 193 202 204 206 207 207 206 212 215 220 224 229 223 210
258 260 263 246 262 277 263 250 290 279 277 287 301 244 206 209 236 230 218 205 201 196 195 193 192 193 192 192 191 194 199 205 206 209 209 215 217 219 225 233 239 240 225 206
250 263 266 8 26 333 267 235 17 308 284 269 253 252 216 149 244 220 202 193 190 191 190 184 185 184 190 196 196 199 201 208 209 215 212 220 223 231 232 234 241 246 229 214
251 255 261 26 1 284 252 356 5 316 285 253 257 315 7 222 222 210 208 202 198 193 188 189 186 189 200 204 206 204 203 208 215 222 222 222 221 230 235 237 234 238 230 225
250 255 260 29 4 328 349 351 333 322 287 260 291 349 9 228 213 198 200 194 192 192 188 192 200 204 210 212 212 207 207 213 216 225 231 216 218 223 227 229 220 219 224 233
286 319 16 13 354 342 335 324 325 319 290 256 259 257 245 198 216 204 188 183 192 197 197 205 211 217 222 216 209 209 212 217 216 214 223 221 220 219 220 220 229 226 226 232
251 246 323 330 344 337 327 319 314 303 279 252 249 244 237 227 213 199 189 193 202 210 206 209 216 223 226 217 208 212 215 216 215 218 222 217 224 224 226 225 231 235 236 237
264 293 310 300 335 334 330 324 316 302 273 252 237 229 233 244 222 206 206 205 211 223 224 220 224 234 232 218 207 211 216 216 221 222 224 223 224 236 241 236 242 254 255 248
282 324 307 314 328 330 329 326 319 301 276 261 247 237 237 231 221 216 210 209 217 231 235 227 228 233 227 218 210 211 217 218 224 226 219 225 221 225 227 244 202 225 259 278
304 312 310 313 315 322 316 313 309 283 256 255 256 249 240 230 218 222 217 216 223 232 236 234 234 235 228 220 217 217 224 225 230 230 225 230 230 232 225 208 213 220 223 229
314 312 309 324 329 326 318 314 313 287 265 259 257 255 235 225 229 232 228 227 232 235 237 242 250 248 235 222 219 222 229 222 230 234 235 236 237 239 240 232 214 209 201 205
323 319 313 316 319 329 335 329 317 308 313 308 286 265 256 246 242 243 238 234 236 239 233 236 251 257 248 228 225 230 235 232 230 235 236 235 234 234 238 239 239 231 207 174
315 319 319 315 317 320 314 303 291 287 292 289 279 263 264 266 253 248 245 241 237 242 246 233 241 250 243 236 231 234 237 243 242 234 232 227 225 231 236 235 233 236 230 202
315 314 315 311 311 307 301 293 285 281 280 279 287 284 266 261 256 246 250 252 249 255 261 259 255 242 233 233 237 234 228 208 213 233 233 228 227 230 240 244 238 237 232 173
313 309 304 301 303 299 291 284 279 281 280 284 284 276 272 272 258 252 253 246 234 238 246 260 263 244 226 226 247 254 240 218 205 218 226 225 229 233 242 245 236 237 232 171
325 320 316 313 307 298 297 293 291 289 288 284 277 267 265 265 264 262 256 247 235 230 232 253 247 232 220 233 268 243 235 221 213 210 217 207 225 239 246 248 241 239 235 223
329 327 326 325 320 317 312 310 308 302 297 290 280 272 269 266 258 248 248 252 268 294 257 244 226 231 226 218 268 250 232 228 223 224 227 225 230 239 248 252 246 243 242 235
329 329 330 332 331 327 325 322 316 312 309 299 286 281 280 272 257 250 256 257 326 312 278 224 232 232 234 257 252 251 242 244 243 240 241 241 245 254 261 256 245 241 244 246
322 324 326 328 330 330 327 322 316 310 309 304 298 296 288 269 249 243 255 305 359 324 258 228 231 338 309 267 241 249 248 245 241 239 237 246 245 242 248 254 250 241 239 246
317 314 313 315 316 318 319 317 317 309 296 292 297 298 290 284 271 261 250 271 287 291 272 274 51 42 278 253 250 244 249 262 262 253 238 234 238 240 239 241 248 251 247 245
312 312 313 311 306 303 305 309 318 312 303 293 287 290 285 270 265 271 297 89 20 282 281 86 164 242 257 252 261 262 253 256 265 267 259 250 247 245 244 249 253 255 256 258
313 315 315 312 306 303 303 305 309 304 299 299 300 290 277 279 286 291 294 303 183 254 268 176 200 239 255 265 265 273 278 289 294 289 270 270 264 254 251 251 252 253 255 255
319 315 315 310 314 309 305 305 307 310 301 302 319 316 301 292 290 292 280 273 267 265 269 237 195 228 258 276 283 287 290 272 253 263 277 274 269 268 266 264 257 263 269 271
320 321 314 310 317 317 314 313 306 306 307 311 324 332 322 311 305 310 301 283 264 256 268 270 246 236 258 288 305 294 284 287 294 291 282 280 282 280 280 278 278 274 274 276